EW3719 Weather Reports


Display with metric or nautical units.
time (UTC)temp
F
wind
direction
speed
MPH
gust
MPH
rain 1hr
in
rain 24hr
in
rain mn
in
humidity
%
barometer
mb
20260906214506 70 82 2.0 6.0 0.00 0.00 0.00 63 1018.2
20260906213001 70 333 2.0 6.0 0.00 0.00 0.00 63 1018.3
20260906211502 70 58 4.0 9.0 0.00 0.00 0.00 62 1018.3
20260906210127 70 68 2.0 7.0 0.00 0.00 0.00 65 1018.3
20260906204600 70 71 3.0 10.0 0.00 0.00 0.00 64 1018.3
20260906203103 70 48 2.0 12.0 0.00 0.00 0.00 64 1018.4
20260906201603 70 15 4.0 11.0 0.00 0.00 0.00 64 1018.4
20260906200106 69 31 5.0 13.0 0.00 0.00 0.00 64 1018.5
20260906194555 69 58 7.0 15.0 0.00 0.00 0.00 63 1018.4
20260906193055 69 70 5.0 14.0 0.00 0.00 0.00 65 1018.5
20260906191554 69 56 7.0 13.0 0.00 0.00 0.00 62 1018.6
20260906184603 69 44 7.0 15.0 0.00 0.00 0.00 68 1018.8
20260906183051 68 22 10.0 17.0 0.00 0.00 0.00 67 1018.8
20260906181551 68 54 6.0 15.0 0.00 0.00 0.00 66 1018.8
20260906180047 67 67 7.0 16.0 0.00 0.00 0.00 69 1018.7
20260906174548 67 62 7.0 15.0 0.00 0.00 0.00 70 1019.0
20260906173044 67 25 9.0 16.0 0.00 0.00 0.00 70 1019.0
20260906171546 67 49 8.0 16.0 0.00 0.00 0.00 70 1019.0
20260906170040 66 49 11.0 18.0 0.00 0.00 0.00 71 1019.0
20260906164540 66 41 8.0 18.0 0.00 0.00 0.00 74 1019.0
20260906163038 66 41 8.0 15.0 0.00 0.00 0.00 73 1019.2
20260906161537 65 40 10.0 17.0 0.00 0.00 0.00 75 1019.3
20260906160035 65 51 7.0 12.0 0.00 0.00 0.00 76 1019.4
20260906154534 65 69 8.0 15.0 0.00 0.00 0.00 76 1019.3
20260906153031 64 43 6.0 14.0 0.00 0.00 0.00 77 1019.4
20260906151531 64 50 9.0 15.0 0.00 0.00 0.00 79 1019.6
20260906150030 64 53 6.0 15.0 0.00 0.00 0.00 80 1019.7
20260906144529 63 54 10.0 17.0 0.00 0.00 0.00 80 1019.7
20260906143026 63 79 7.0 17.0 0.00 0.00 0.00 82 1019.5
20260906141528 61 59 7.0 16.0 0.00 0.00 0.00 84 1019.5
20260906140028 61 40 8.0 13.0 0.00 0.00 0.00 84 1019.5
20260906134526 61 354 6.0 14.0 0.00 0.00 0.00 85 1019.3
20260906133021 60 26 6.0 12.0 0.00 0.00 0.00 87 1019.3
20260906131520 59 56 4.0 14.0 0.00 0.00 0.00 89 1019.3
20260906130018 59 65 7.0 13.0 0.00 0.00 0.00 88 1019.2
20260906124517 58 58 7.0 13.0 0.00 0.00 0.00 90 1019.1
20260906123019 58 81 7.0 13.0 0.00 0.00 0.00 91 1019.0
20260906121515 58 78 3.0 8.0 0.00 0.00 0.00 91 1019.0
20260906120012 58 72 2.0 9.0 0.00 0.00 0.00 91 1018.8
20260906114509 58 73 5.0 11.0 0.00 0.00 0.00 91 1018.4
20260906113007 57 56 6.0 11.0 0.00 0.00 0.00 92 1018.2
20260906111507 56 48 7.0 12.0 0.00 0.00 0.00 95 1018.1
20260906110002 56 73 6.0 9.0 0.00 0.00 0.00 95 1017.9
20260906104500 56 60 4.0 8.0 0.00 0.00 0.00 96 1017.7
20260906103100 56 58 2.0 5.0 0.00 0.00 0.00 95 1017.6
20260906101557 56 73 3.0 10.0 0.00 0.00 0.00 95 1017.4
20260906100054 56 84 4.0 9.0 0.00 0.00 0.00 94 1017.2
20260906094554 57 68 3.0 12.0 0.00 0.00 0.00 94 1017.1
20260906093055 57 39 5.0 13.0 0.00 0.00 0.00 93 1017.0
20260906091547 57 72 5.0 13.0 0.00 0.00 0.00 92 1016.9
20260906090044 57 68 5.0 9.0 0.00 0.00 0.00 92 1016.8
20260906084542 58 65 4.0 10.0 0.00 0.00 0.00 91 1016.6
20260906083040 58 65 6.0 13.0 0.00 0.00 0.00 91 1016.4
20260906081538 59 53 6.0 13.0 0.00 0.00 0.00 92 1016.2
20260906080033 59 75 7.0 14.0 0.00 0.00 0.00 92 1015.9
20260906074529 60 63 7.0 13.0 0.00 0.00 0.00 92 1015.8
20260906073027 60 58 5.0 12.0 0.00 0.00 0.00 92 1015.8
20260906071525 60 75 6.0 15.0 0.00 0.00 0.00 92 1015.7
20260906070023 61 65 6.0 12.0 0.00 0.00 0.00 92 1015.7
20260906064532 61 70 5.0 12.0 0.00 0.00 0.00 93 1015.6
20260906063020 61 63 4.0 9.0 0.00 0.00 0.00 93 1015.5
20260906061524 61 68 2.0 6.0 0.00 0.00 0.00 95 1015.4
20260906060016 61 60 1.0 6.0 0.00 0.00 0.00 94 1015.4
20260906054526 61 56 2.0 6.0 0.00 0.00 0.00 93 1015.4
20260906053012 62 61 2.0 7.0 0.00 0.00 0.00 92 1015.4
20260906051510 62 68 4.0 9.0 0.00 0.00 0.00 92 1015.3
20260906050009 62 62 4.0 7.0 0.00 0.00 0.00 93 1015.2
20260906044508 63 43 3.0 6.0 0.00 0.00 0.00 92 1015.2
20260906043018 63 63 3.0 7.0 0.00 0.00 0.00 91 1015.1
20260906041503 63 59 1.0 6.0 0.00 0.00 0.00 90 1015.1
20260906040100 64 63 2.0 6.0 0.00 0.00 0.00 89 1015.2
20260906034605 64 58 2.0 9.0 0.00 0.00 0.00 89 1015.2
20260906033058 64 85 3.0 7.0 0.00 0.00 0.00 90 1014.9
20260906031557 64 48 2.0 8.0 0.00 0.00 0.00 90 1014.9
20260906030056 64 58 0.0 3.0 0.00 0.00 0.00 91 1014.8
20260906024555 64 80 2.0 4.0 0.00 0.00 0.00 90 1014.7
20260906023101 64 80 0.0 2.0 0.00 0.00 0.00 90 1014.7
20260906021555 65 79 1.0 3.0 0.00 0.00 0.00 89 1014.7
20260906020054 64 44 0.0 3.0 0.00 0.00 0.00 90 1014.6
20260906014557 64 7 0.0 3.0 0.00 0.00 0.00 91 1014.8
20260906013054 64 44 0.0 0.0 0.00 0.00 0.00 90 1014.6
20260906011554 65 59 0.0 0.0 0.00 0.00 0.00 90 1014.6
20260906010049 65 56 0.0 1.0 0.00 0.00 0.00 89 1014.4
20260906004549 65 55 0.0 2.0 0.00 0.00 0.00 88 1014.3
20260906003048 66 32 0.0 0.0 0.00 0.00 0.00 87 1014.2
20260906001547 66 48 0.0 0.0 0.00 0.00 0.00 86 1014.1
20260906000047 66 51 0.0 0.0 0.00 0.00 0.00 86 1014.1
20260905234547 66 9 0.0 3.0 0.00 0.00 0.00 87 1014.0
20260905233047 66 333 2.0 11.0 0.00 0.00 0.00 87 1014.2
20260905231547 68 356 6.0 13.0 0.00 0.00 0.00 86 1014.4
20260905230043 70 354 1.0 4.0 0.00 0.00 0.00 80 1014.2
20260905224543 71 193 0.0 0.0 0.00 0.00 0.00 78 1013.9
20260905223042 71 193 0.0 0.0 0.00 0.00 0.00 79 1013.8
20260905221544 70 193 0.0 0.0 0.00 0.00 0.00 79 1013.7
20260905220041 70 94 0.0 0.0 0.00 0.00 0.00 80 1013.7